Location: Emory University Observatory
(33.7903°N, 84.3267°W)
Time: 11:15:18
(UTC-04:00)

Envisat - Pass Details

Date: 08 October 2017
Orbit: 764 x 766 km, 98.2° (Epoch: 17 October)

Event Time Altitude Azimuth Distance (km) Brightness Sun altitude
Exits shadow 20:41:25 23° 45° (NE) 1,598 4.3 -19.4°
Drops below altitude 10° 20:44:12 10° 15° (NNE) 2,305 5.4 -20.0°
Sets 20:46:51 0° 3° (N) 3,235 6.3 -20.5°
